This is the latest recevied weather packets stored in our database for station/object OM4MO-10. If no packets are shown the sender has not sent any weather packets the latest 10 day(s).
| Time | Temp. | Humidity | Pressure | Rain* | Wind** | Luminosity | Snow |
|---|---|---|---|---|---|---|---|
| 1788597818 | 18.33° C | 79% | 1021 hPa | - | - | - | - |
| 1788596918 | 17.78° C | 79% | 1021.1 hPa | - | - | - | - |
| 1788596017 | 18.89° C | 79% | 1021.2 hPa | - | - | - | - |
| 1788595117 | 17.78° C | 79% | 1021.3 hPa | - | - | - | - |
| 1788594217 | 18.33° C | 79% | 1021.1 hPa | - | - | - | - |
| 1788593317 | 19.44° C | 79% | 1021.1 hPa | - | - | - | - |
| 1788592417 | 19.44° C | 79% | 1019.6 hPa | - | - | - | - |
| 1788591517 | 19.44° C | 79% | 1019.5 hPa | - | - | - | - |
| 1788590617 | 20° C | 79% | 1019.4 hPa | - | - | - | - |
| 1788589716 | 21.11° C | 79% | 1019.5 hPa | - | - | - | - |
| 1788588816 | 20.56° C | 79% | 1018.8 hPa | - | - | - | - |
| 1788587916 | 19.44° C | 79% | 1019 hPa | - | - | - | - |
| 1788587016 | 19.44° C | 79% | 1018.8 hPa | - | - | - | - |
| 1788586116 | 18.33° C | 79% | 1018.4 hPa | - | - | - | - |
| 1788585216 | 17.78° C | 79% | 1018.2 hPa | - | - | - | - |
| 1788584316 | 17.22° C | 79% | 1017.8 hPa | - | - | - | - |
| 1788583416 | 17.22° C | 79% | 1017.6 hPa | - | - | - | - |
| 1788582515 | 16.11° C | 79% | 1017.2 hPa | - | - | - | - |
| 1788581615 | 16.67° C | 79% | 1016.8 hPa | - | - | - | - |
| 1788580715 | 16.11° C | 79% | 1016.2 hPa | - | - | - | - |
| 1788579815 | 15° C | 79% | 1015.9 hPa | - | - | - | - |
| 1788578915 | 15.56° C | 79% | 1015.9 hPa | - | - | - | - |
| 1788578015 | 16.11° C | 79% | 1016 hPa | - | - | - | - |
| 1788577115 | 16.11° C | 79% | 1015.9 hPa | - | - | - | - |
| 1788576214 | 16.11° C | 79% | 1016.2 hPa | - | - | - | - |
* Rain since midnight (hover to see other rain measurements)
** Current wind speed in m/s (hover to see current wind gust speed)